Tracking 27380 objects as of 6-Jun-2023
HD Live streaming from Space Station
objects crossing your sky now

CZ-4 DEB

Track CZ-4 DEB now!
10-day predictions


NORAD ID: 20974
Int'l Code: 1990-081CG
Perigee: 793.8 km
Apogee: 816.2 km
Inclination: 98.5 °
Period: 100.8 minutes
Semi major axis: 7175 km
RCS: 0.0086 m2 (small)
Launch date: September 3, 1990
Source: People's Republic of China (PRC)
Launch site: Taiyaun Space Center, China (TSC)

Note: This is SATELLITE DEBRIS
Your satellite tracking list
Your tracking list is empty




NASA's NSSDC Master Catalog

Two Line Element Set (TLE):
1 20974U 90081CG  23156.47636109  .00001562  00000-0  64399-3 0  9991
2 20974  98.5171 157.4581 0015637  14.1801 138.3953 14.28172586691263
Source of the keplerian elements: AFSPC